Tiempo cada hora Abolene

Hoy, 30 Octubre, Viernes

Tiempo Temperatura Precipitaciones Viento Presión Humedad
00:00 +10°C° 0.5 mm 2 mps 753 mmHg 96%
01:00 +11°C° 0.5 mm 1 mps 753 mmHg 97%
02:00 +10°C° 0 mm 1 mps 753 mmHg 96%
03:00 +10°C° 0.3 mm 1 mps 753 mmHg 96%
04:00 +10°C° 0.3 mm 1 mps 753 mmHg 97%
05:00 +10°C° 0.3 mm 1 mps 753 mmHg 97%
06:00 +10°C° 0.1 mm 1 mps 753 mmHg 97%
07:00 +10°C° 0.1 mm 1 mps 753 mmHg 97%
08:00 +10°C° 0 mm 1 mps 754 mmHg 96%
09:00 +10°C° 0 mm 1 mps 754 mmHg 95%
10:00 +10°C° 0 mm 0 mps 754 mmHg 93%
11:00 +10°C° 0 mm 0 mps 754 mmHg 91%
12:00 +10°C° 0.1 mm 0 mps 754 mmHg 91%
13:00 +10°C° 0.1 mm 0 mps 754 mmHg 90%
14:00 +10°C° 0.1 mm 0 mps 754 mmHg 89%
15:00 +10°C° 0.2 mm 0 mps 754 mmHg 91%
16:00 +11°C° 0.2 mm 1 mps 754 mmHg 93%
17:00 +10°C° 0.2 mm 1 mps 754 mmHg 95%
18:00 +10°C° 0.2 mm 1 mps 755 mmHg 95%
19:00 +10°C° 0.2 mm 1 mps 755 mmHg 96%
20:00 +10°C° 0.2 mm 1 mps 755 mmHg 96%
21:00 +9°C° 0.2 mm 2 mps 756 mmHg 96%
22:00 +9°C° 0.2 mm 2 mps 756 mmHg 96%
23:00 +9°C° 0.2 mm 2 mps 756 mmHg 96%

Mañana, 31 Octubre, Sábado

Tiempo Temperatura Precipitaciones Viento Presión Humedad
00:00 +9°C° 0.1 mm 2 mps 757 mmHg 96%
01:00 +9°C° 0.1 mm 2 mps 757 mmHg 96%
02:00 +9°C° 0.1 mm 2 mps 757 mmHg 96%
03:00 +8°C° 0 mm 2 mps 758 mmHg 96%
04:00 +8°C° 0 mm 2 mps 758 mmHg 96%
05:00 +8°C° 0 mm 2 mps 758 mmHg 96%
06:00 +8°C° 0 mm 2 mps 759 mmHg 95%
07:00 +8°C° 0 mm 2 mps 760 mmHg 95%
08:00 +8°C° 0 mm 2 mps 760 mmHg 94%
09:00 +9°C° 0 mm 3 mps 761 mmHg 91%
10:00 +9°C° 0 mm 3 mps 761 mmHg 89%
11:00 +9°C° 0 mm 3 mps 762 mmHg 86%
12:00 +9°C° 0 mm 3 mps 762 mmHg 85%
13:00 +9°C° 0 mm 2 mps 762 mmHg 83%
14:00 +10°C° 0 mm 2 mps 762 mmHg 81%
15:00 +9°C° 0 mm 2 mps 762 mmHg 84%
16:00 +8°C° 0 mm 2 mps 763 mmHg 87%
17:00 +8°C° 0 mm 2 mps 763 mmHg 89%
18:00 +7°C° 0 mm 2 mps 763 mmHg 90%
19:00 +7°C° 0 mm 2 mps 764 mmHg 91%
20:00 +6°C° 0 mm 2 mps 764 mmHg 92%
21:00 +6°C° 0 mm 2 mps 764 mmHg 93%
22:00 +5°C° 0 mm 2 mps 764 mmHg 94%
23:00 +5°C° 0 mm 2 mps 764 mmHg 94%

Pasado mañana, 1 Noviembre, Domingo

Tiempo Temperatura Precipitaciones Viento Presión Humedad
00:00 +4°C° 0 mm 2 mps 764 mmHg 95%
01:00 +4°C° 0 mm 2 mps 764 mmHg 95%
02:00 +5°C° 0 mm 1 mps 764 mmHg 96%
03:00 +5°C° 0 mm 1 mps 764 mmHg 96%
04:00 +5°C° 0 mm 1 mps 764 mmHg 96%
05:00 +4°C° 0 mm 1 mps 764 mmHg 96%
06:00 +4°C° 0 mm 1 mps 764 mmHg 96%
07:00 +4°C° 0 mm 1 mps 764 mmHg 95%
08:00 +3°C° 0 mm 2 mps 764 mmHg 95%
09:00 +4°C° 0 mm 2 mps 764 mmHg 90%
10:00 +5°C° 0 mm 2 mps 764 mmHg 84%
11:00 +7°C° 0 mm 2 mps 764 mmHg 79%
12:00 +7°C° 0 mm 2 mps 763 mmHg 78%
13:00 +7°C° 0 mm 2 mps 763 mmHg 77%
14:00 +8°C° 0 mm 2 mps 762 mmHg 75%
15:00 +7°C° 0 mm 2 mps 762 mmHg 81%
16:00 +6°C° 0 mm 2 mps 762 mmHg 86%
17:00 +4°C° 0 mm 2 mps 761 mmHg 91%
18:00 +4°C° 0 mm 2 mps 761 mmHg 91%
19:00 +4°C° 0 mm 2 mps 761 mmHg 91%
20:00 +3°C° 0 mm 2 mps 761 mmHg 92%
21:00 +3°C° 0 mm 2 mps 760 mmHg 92%
22:00 +3°C° 0 mm 2 mps 760 mmHg 93%
23:00 +3°C° 0 mm 2 mps 760 mmHg 93%

2 Noviembre, Lunes

Tiempo Temperatura Precipitaciones Viento Presión Humedad
00:00 +2°C° 0 mm 2 mps 760 mmHg 93%
01:00 +2°C° 0 mm 2 mps 759 mmHg 93%
02:00 +2°C° 0 mm 2 mps 759 mmHg 93%
03:00 +2°C° 0 mm 2 mps 759 mmHg 92%
04:00 +1°C° 0 mm 2 mps 759 mmHg 92%
05:00 0°C° 0 mm 3 mps 758 mmHg 91%
06:00 +1°C° 0 mm 2 mps 758 mmHg 92%
07:00 +1°C° 0 mm 2 mps 758 mmHg 93%
08:00 +1°C° 0 mm 2 mps 758 mmHg 93%
09:00 +1°C° 0 mm 3 mps 758 mmHg 90%
10:00 +2°C° 0 mm 3 mps 758 mmHg 86%
11:00 +4°C° 0 mm 3 mps 758 mmHg 83%
12:00 +4°C° 0 mm 3 mps 758 mmHg 83%
13:00 +5°C° 0 mm 3 mps 758 mmHg 82%
14:00 +7°C° 0 mm 3 mps 758 mmHg 82%
15:00 +7°C° 0 mm 3 mps 757 mmHg 86%
16:00 +5°C° 0 mm 3 mps 757 mmHg 89%
17:00 +5°C° 0 mm 4 mps 757 mmHg 93%
18:00 +5°C° 0 mm 4 mps 758 mmHg 93%
19:00 +5°C° 0 mm 4 mps 758 mmHg 94%
20:00 +5°C° 0 mm 4 mps 758 mmHg 95%
21:00 +5°C° 0 mm 4 mps 758 mmHg 94%
22:00 +6°C° 0 mm 4 mps 758 mmHg 94%
23:00 +6°C° 0 mm 5 mps 758 mmHg 93%

3 Noviembre, Martes

Tiempo Temperatura Precipitaciones Viento Presión Humedad
00:00 +6°C° 0 mm 5 mps 758 mmHg 92%
01:00 +7°C° 0 mm 5 mps 758 mmHg 91%
02:00 +7°C° 0 mm 5 mps 758 mmHg 90%
03:00 +7°C° 0 mm 5 mps 757 mmHg 89%
04:00 +7°C° 0 mm 5 mps 757 mmHg 89%
05:00 +7°C° 0 mm 5 mps 757 mmHg 89%
06:00 +7°C° 0 mm 5 mps 757 mmHg 89%
07:00 +7°C° 0 mm 5 mps 757 mmHg 89%
08:00 +7°C° 0 mm 6 mps 758 mmHg 89%
09:00 +7°C° 0 mm 6 mps 758 mmHg 86%
10:00 +8°C° 0 mm 6 mps 758 mmHg 83%
11:00 +8°C° 0 mm 6 mps 758 mmHg 80%
12:00 +8°C° 0 mm 6 mps 758 mmHg 80%
13:00 +9°C° 0 mm 6 mps 758 mmHg 80%
14:00 +9°C° 0 mm 6 mps 758 mmHg 80%
15:00 +9°C° 0.2 mm 5 mps 758 mmHg 82%
16:00 +8°C° 0.2 mm 5 mps 758 mmHg 83%
17:00 +8°C° 0.2 mm 5 mps 758 mmHg 85%
18:00 +8°C° 0.2 mm 5 mps 758 mmHg 86%
19:00 +8°C° 0.2 mm 4 mps 758 mmHg 88%
20:00 +8°C° 0.2 mm 4 mps 759 mmHg 89%
21:00 +8°C° 0.4 mm 4 mps 759 mmHg 91%
22:00 +9°C° 0.4 mm 3 mps 759 mmHg 93%
23:00 +9°C° 0.4 mm 2 mps 760 mmHg 95%

4 Noviembre, Miércoles

Tiempo Temperatura Precipitaciones Viento Presión Humedad
00:00 +8°C° 0.1 mm 2 mps 760 mmHg 95%
01:00 +8°C° 0.1 mm 2 mps 760 mmHg 96%
02:00 +8°C° 0.1 mm 2 mps 761 mmHg 96%
03:00 +7°C° 0 mm 2 mps 761 mmHg 95%
04:00 +7°C° 0 mm 2 mps 761 mmHg 95%
05:00 +6°C° 0 mm 2 mps 761 mmHg 94%
06:00 +5°C° 0 mm 2 mps 762 mmHg 94%
07:00 +5°C° 0 mm 2 mps 762 mmHg 94%
08:00 +5°C° 0 mm 2 mps 763 mmHg 94%
09:00 +6°C° 0 mm 2 mps 763 mmHg 91%
10:00 +7°C° 0 mm 2 mps 763 mmHg 88%
11:00 +8°C° 0 mm 2 mps 763 mmHg 84%
12:00 +8°C° 0 mm 2 mps 764 mmHg 83%
13:00 +9°C° 0 mm 2 mps 764 mmHg 82%
14:00 +9°C° 0 mm 2 mps 764 mmHg 82%
15:00 +8°C° 0 mm 2 mps 764 mmHg 85%
16:00 +8°C° 0 mm 2 mps 764 mmHg 89%
17:00 +7°C° 0 mm 2 mps 765 mmHg 93%
18:00 +7°C° 0 mm 2 mps 765 mmHg 94%
19:00 +6°C° 0 mm 2 mps 765 mmHg 94%
20:00 +6°C° 0 mm 2 mps 765 mmHg 95%
21:00 +7°C° 0 mm 1 mps 765 mmHg 95%
22:00 +7°C° 0 mm 1 mps 765 mmHg 95%
23:00 +7°C° 0 mm 1 mps 765 mmHg 95%
Mostrar más

Necesitamos Su Consentimiento

Meteoprog y nuestros Proveedores de Servicios pueden almacenar y acceder a sus datos personales como cookies, identificadores de dispositivo u otras tecnologías similares de su dispositivo y procesar dichos datos para personalizar contenido y anuncios, además de ofrecer funciones de redes sociales y analizar el tráfico.

  • Almacenar y/o acceder a información en su dispositivo

    Se puede almacenar o acceder a cookies, identificadores de dispositivo u otra información de su dispositivo para los fines anteriormente indicados.

  • Anuncios y contenido personalizados, medición de anuncios y contenido, percepciones del público, y desarrollo de productos

    Los anuncios y el contenido pueden personalizarse en base a su perfil. Se pueden añadir más datos para personalizar mejor los anuncios y contenidos. Se puede medir el rendimiento de los anuncios y contenidos. Se puede obtener la percepción sobre el público que ha visto los anuncios y contenidos. Dichos datos pueden usarse para desarrollar o mejorar la experiencia del usuario, sistemas y software.

Al hacer clic en ‘Estoy De Acuerdo’ usted permitirá el uso de las cookies, identificadores de dispositivo, balizas web u otras tecnologías similares indicadas. Su configuración puede cambiarse desde el navegador de su dispositivo.

Para ciertos fines, los intereses legítimos pueden ser considerados por encima del consentimiento. Puede leer más sobre ello en nuestra Política de Privacidad y Cookies.